RH
4 4 4 4 4 4 4 4 4 4 4 4 4 4 4 4 4 4 4 4 4 4 4 4 4 3 3 3 3 3 3 3 3 3 3 3 3 3 3 3 3 3 4 5 6 6 6 5 5 5 6 6 6 6 7 7 6 6 6 6 7 8 9
4 4 4 4 4 4 4 4 4 4 4 4 4 4 4 4 4 4 4 4 4 4 4 4 4 4 3 3 3 3 3 3 3 3 3 3 3 3 3 3 3 3 3 4 5 6 6 6 6 5 5 6 6 6 6 5 6 6 6 6 6 7 7
4 4 4 4 4 4 4 4 4 4 4 4 4 4 4 4 4 4 4 4 4 4 4 4 4 4 3 3 3 3 3 3 3 3 3 3 3 3 3 3 3 3 3 3 4 5 5 5 5 5 5 5 5 5 5 5 5 5 5 6 6 6 7
4 4 4 4 4 4 4 4 4 4 4 4 4 4 5 4 4 5 4 4 4 4 4 4 4 4 3 3 3 3 3 3 3 3 3 3 3 3 3 3 3 3 3 3 4 4 5 4 5 5 5 5 5 5 5 5 5 5 5 5 5 6 7
4 4 5 5 5 5 4 4 4 4 4 4 4 4 4 4 4 4 4 4 4 4 4 4 4 4 3 3 3 3 3 3 3 3 3 3 3 3 3 3 3 3 3 3 4 4 4 4 4 4 5 5 5 5 5 5 5 5 5 4 4 5 6
5 5 5 5 4 4 4 4 4 4 4 4 4 4 4 5 4 4 4 4 4 4 4 3 3 3 3 3 3 3 3 3 3 3 3 3 3 3 3 3 3 3 3 3 3 4 4 4 3 4 4 4 4 5 5 5 5 5 4 4 4 4 4
5 5 5 4 4 4 4 4 4 4 4 4 4 4 4 5 4 4 5 4 4 4 3 3 3 3 3 3 3 3 3 3 3 3 3 3 3 3 3 3 3 3 3 3 3 3 4 4 3 3 4 4 4 4 4 4 4 4 4 4 4 4 4
5 5 4 4 5 4 4 5 4 4 4 4 4 5 4 5 4 4 5 4 4 4 3 3 3 3 3 3 3 3 3 3 3 3 3 3 3 3 3 3 3 3 3 3 3 3 3 3 3 3 3 4 4 4 4 4 4 4 4 4 4 4 4
5 5 5 4 5 5 4 5 4 4 5 4 4 5 4 5 4 4 4 4 4 4 3 3 3 3 3 3 3 3 3 3 3 3 3 3 3 3 3 3 3 3 3 3 3 3 3 3 3 3 3 3 4 4 4 4 4 4 4 4 4 4 4
5 4 5 5 5 5 4 5 4 4 5 4 5 5 5 5 5 4 4 4 4 4 3 3 3 3 3 3 3 3 3 3 3 3 4 3 3 3 3 3 3 3 3 3 3 3 3 4 3 3 3 3 3 4 3 4 4 3 3 3 3 3 4
5 5 5 5 5 5 4 4 4 5 5 5 5 5 5 5 5 5 4 4 4 4 3 3 3 3 3 3 3 3 4 4 4 4 4 3 3 3 3 3 3 3 3 3 3 3 3 3 3 3 3 3 3 3 3 3 3 3 3 3 3 3 3
5 5 5 5 5 5 5 5 5 5 5 5 5 5 5 5 5 5 5 4 4 4 4 4 3 3 3 3 4 4 4 4 4 4 3 3 3 3 3 3 3 3 3 3 3 3 3 3 3 3 3 3 3 3 3 3 3 3 3 3 3 3 3
5 5 5 5 5 5 5 5 5 5 5 5 5 5 5 5 5 5 5 5 4 4 4 4 4 4 4 4 4 4 4 4 3 3 3 3 3 3 3 3 3 3 3 3 3 3 3 3 3 3 3 3 3 3 3 3 3 3 3 3 3 3 3
5 5 5 5 5 5 5 5 5 5 5 5 5 5 5 5 5 5 5 4 4 4 4 4 4 4 4 4 4 4 4 3 3 3 3 3 3 3 3 3 3 3 3 3 3 3 3 3 3 3 3 3 3 3 3 3 3 3 3 3 3 3 3
5 5 5 5 5 5 5 5 5 6 5 5 6 6 5 5 5 5 5 4 4 4 4 4 4 5 5 5 4 4 4 3 3 3 3 3 3 3 3 3 3 3 3 3 3 3 3 3 3 3 3 3 3 3 3 3 3 3 3 3 3 3 3
6 6 6 6 6 6 6 5 6 6 6 6 6 6 6 6 5 5 5 4 4 4 4 4 5 5 5 5 4 4 4 3 3 3 3 3 3 3 3 3 3 3 3 3 3 3 3 3 3 3 3 3 3 2 3 3 3 3 3 3 3 3 3
6 6 6 6 6 6 6 6 6 6 6 6 6 6 6 6 6 5 5 5 4 4 4 4 5 5 5 5 4 4 4 3 3 4 3 3 3 3 3 3 3 3 3 3 3 3 3 3 3 3 3 3 2 2 3 3 2 3 3 3 3 3 3
6 6 6 6 6 6 6 6 6 6 6 6 6 7 6 6 6 5 5 5 4 4 4 4 5 5 5 5 5 4 4 4 4 4 4 3 3 3 3 3 3 3 3 3 3 3 3 3 3 3 3 3 3 3 2 3 3 3 3 3 3 3 3
6 6 6 6 6 7 7 7 6 6 6 6 6 7 6 6 6 6 5 5 4 4 4 4 4 5 5 5 4 4 4 4 4 4 4 4 4 3 3 3 3 3 3 3 3 3 3 3 3 3 3 2 3 3 2 3 3 2 3 3 3 3 3
7 6 6 6 6 7 7 7 7 7 6 6 6 7 7 6 6 6 6 6 5 5 5 4 5 5 5 5 4 4 4 4 4 4 4 4 4 4 3 3 3 3 3 3 3 3 3 3 3 3 3 2 3 3 3 3 3 3 3 2 2 3 3
7 6 6 6 6 7 7 8 8 7 7 6 6 6 7 7 6 6 6 6 5 5 4 4 5 5 5 5 4 4 4 4 4 4 4 4 4 4 4 4 3 3 4 3 3 3 3 3 3 3 3 3 2 3 3 3 3 3 3 3 3 3 3
7 7 6 6 6 7 7 8 9 8 7 7 6 6 7 7 7 7 7 7 6 5 5 4 5 5 5 5 5 4 4 4 4 4 4 4 4 4 4 4 3 4 4 3 4 4 3 3 3 3 3 3 3 3 3 3 3 3 3 3 3 3 3
7 7 7 6 6 6 7 8 9 9 8 7 7 7 6 6 6 6 6 7 7 6 5 4 5 5 5 5 5 4 4 4 4 4 4 4 4 4 4 4 4 4 4 4 4 4 4 4 3 3 3 3 3 3 3 3 3 3 3 3 3 3 3
8 7 7 7 6 6 7 9 9 9 9 8 7 6 6 6 6 6 6 7 8 7 6 5 5 6 5 5 5 5 5 4 4 4 4 4 4 4 4 4 4 4 4 4 4 4 4 4 4 4 3 3 3 3 3 3 3 3 3 3 3 3 3
8 8 8 7 7 7 7 9 10 10 9 7 6 6 6 6 6 6 6 7 8 8 8 6 5 5 6 6 5 5 5 5 4 5 5 5 5 5 4 4 4 4 4 4 4 4 4 4 4 4 4 3 3 3 3 3 3 3 3 3 3 3 3
8 8 8 7 7 8 8 10 11 10 9 8 6 6 6 6 6 5 6 6 7 8 8 7 6 5 5 6 6 5 5 5 5 5 5 5 5 5 4 4 4 4 4 4 4 4 4 4 4 4 4 4 3 3 3 3 3 3 3 3 3 3 3
8 8 9 8 8 9 10 11 11 11 10 8 7 7 6 6 6 5 5 5 6 6 7 7 7 6 5 5 6 5 5 5 5 5 5 5 5 5 5 5 4 4 4 4 4 4 4 4 4 4 4 4 3 3 3 3 3 3 3 3 3 3 3
8 9 9 9 9 10 11 13 13 13 11 9 7 7 6 6 6 5 4 4 5 5 5 6 6 6 6 5 6 6 5 5 5 5 5 5 5 5 5 5 5 4 5 4 4 4 4 4 4 4 4 4 4 3 3 3 3 3 3 3 3 3 3
8 9 9 9 10 12 13 14 14 12 11 10 8 8 7 7 7 6 5 5 5 5 6 6 6 6 6 6 6 6 6 6 5 6 6 5 5 5 5 5 5 4 4 4 4 4 4 4 4 4 4 4 4 4 4 4 3 3 3 3 3 3 3
9 9 9 10 11 12 14 15 15 14 13 12 11 10 9 9 9 9 8 7 7 7 7 7 7 7 7 6 6 6 6 6 6 6 6 6 5 5 5 5 5 5 4 5 4 4 4 4 4 4 4 4 4 4 4 3 3 3 3 3 3 3 3
9 9 10 11 13 14 16 18 19 19 18 17 15 13 10 10 10 10 9 8 7 7 8 7 7 7 7 7 7 6 6 7 6 6 6 6 6 5 5 5 5 5 4 4 4 4 4 4 4 4 4 4 4 4 4 4 4 3 3 3 3 3 3
8 9 10 12 15 17 19 20 21 21 21 19 17 15 12 10 11 11 9 8 7 7 8 8 7 7 7 7 7 7 7 7 7 6 6 6 6 5 5 5 5 5 5 4 4 4 4 4 4 4 4 4 4 4 4 4 4 3 3 3 3 3 3
9 9 10 13 15 17 19 20 21 21 20 19 18 16 14 12 11 11 10 9 7 7 8 8 8 8 8 7 7 7 7 7 7 7 6 6 6 5 5 5 5 5 5 4 4 5 4 4 4 4 4 4 4 4 4 4 4 4 4 3 3 3 3
10 10 11 13 15 17 18 19 20 20 20 19 19 18 16 14 12 12 11 10 9 7 7 8 8 8 8 8 7 7 7 7 7 7 6 6 6 6 5 5 5 5 5 5 5 5 4 4 4 4 4 4 4 4 4 4 4 4 4 4 4 3 3
10 12 14 15 16 17 18 18 18 18 18 18 18 18 17 15 13 11 10 10 9 8 8 8 8 8 8 8 8 7 7 7 7 7 7 6 6 6 5 5 5 5 5 5 5 5 5 5 5 4 4 4 4 4 4 4 4 4 4 4 4 4 3
10 11 14 16 16 16 16 16 16 16 16 16 16 16 15 14 13 11 9 9 8 8 8 8 8 8 8 8 8 8 7 7 7 7 7 6 6 6 6 5 5 5 5 5 5 5 5 5 5 5 4 4 4 4 4 4 4 4 4 4 4 4 4
Wind_Speed
92 91 91 92 92 91 91 91 91 91 91 91 91 91 91 91 92 92 94 95 96 97 99 100 101 103 106 107 109 110 112 113 113 114 114 115 116 117 118 120 120 119 117 121 129 132 133 136 138 139 142 145 145 146 146 146 144 143 142 142 143 145 147
87 87 87 88 88 88 88 88 88 88 88 88 88 88 88 88 89 89 91 92 94 95 96 97 99 101 102 104 105 106 107 108 108 109 109 110 111 111 113 115 116 115 114 116 122 127 129 132 135 136 137 141 143 143 144 144 143 143 142 141 141 142 144
83 83 84 84 84 84 85 85 85 85 85 85 85 84 85 85 85 86 88 89 91 93 94 95 97 98 100 100 101 101 102 103 103 104 104 105 106 107 108 110 111 110 110 111 115 121 125 128 132 133 134 137 139 140 142 142 142 142 141 141 140 140 141
80 80 80 80 81 81 81 81 81 81 81 81 80 81 81 82 82 83 85 86 88 90 91 93 94 96 97 97 97 97 97 98 98 99 100 100 102 104 104 105 106 105 105 106 108 113 118 122 127 130 131 134 137 138 139 140 140 141 140 139 139 139 140
77 76 76 76 76 77 77 77 77 77 77 77 76 77 77 78 79 81 82 83 85 87 88 90 92 93 93 93 92 93 93 94 94 94 95 96 98 100 100 101 102 102 101 101 102 106 111 116 120 125 128 131 134 136 137 138 138 139 139 138 138 138 138
74 73 73 73 73 73 73 73 73 73 73 73 73 73 74 75 77 79 80 81 83 84 86 88 89 89 89 89 89 90 90 90 90 91 91 92 93 95 96 97 98 99 99 98 98 101 105 109 113 118 123 127 131 133 134 135 136 137 138 137 137 136 136
72 71 70 70 70 70 70 70 70 70 69 69 69 70 71 73 75 76 78 79 81 82 84 85 85 85 85 85 85 85 85 86 86 87 87 89 90 91 91 92 94 95 96 96 96 97 100 104 108 112 116 121 126 129 131 133 134 135 136 136 135 135 134
70 69 68 67 67 68 67 67 67 66 66 66 67 68 70 71 73 74 75 77 79 80 81 81 81 81 81 81 80 80 80 80 81 82 83 85 86 87 88 89 90 92 93 93 93 94 96 100 104 108 111 115 120 123 126 130 132 132 133 134 134 133 133
67 67 66 66 65 65 65 64 64 64 64 65 66 67 69 70 71 72 74 75 77 78 77 77 77 77 77 76 75 74 74 74 76 77 79 81 83 84 85 86 88 89 90 91 91 91 94 96 99 104 109 112 115 117 120 125 128 128 130 132 133 131 131
66 65 65 65 64 64 63 62 62 62 63 64 64 66 67 69 70 71 72 73 74 75 75 75 74 73 73 71 70 69 69 70 72 74 76 79 81 81 82 83 84 85 87 87 88 88 90 92 96 101 107 109 111 113 115 119 122 124 126 130 131 130 129
64 63 63 63 63 62 61 61 60 61 62 62 62 63 65 67 69 70 71 71 72 73 73 72 71 70 69 68 67 67 68 70 72 74 75 77 78 78 78 79 79 81 82 83 84 85 87 89 93 98 103 106 108 110 111 113 117 119 121 125 127 127 128
64 62 61 61 61 61 60 59 59 60 61 61 61 61 63 65 66 68 69 70 70 70 70 70 69 68 67 66 66 67 68 70 71 73 74 74 75 75 75 75 76 77 79 80 80 82 84 87 90 95 99 102 105 107 107 108 111 113 115 119 122 124 126
63 62 60 60 60 60 59 58 57 59 59 59 59 60 61 63 64 65 66 67 68 67 67 66 66 65 65 66 67 67 68 69 70 71 71 70 71 72 73 74 75 75 77 77 77 78 81 85 87 91 96 100 101 102 103 104 107 109 111 114 116 119 123
63 62 60 59 59 59 58 57 56 57 58 57 57 58 60 61 62 63 64 64 65 64 64 63 62 62 64 66 67 67 67 67 67 67 67 67 68 69 71 72 72 73 74 75 75 76 78 82 85 87 92 97 98 98 100 102 104 106 108 109 112 114 117
63 62 60 59 59 59 58 56 55 56 57 56 56 58 60 60 60 61 62 62 62 61 60 59 58 59 62 65 66 66 65 64 64 64 64 65 65 66 67 68 70 71 72 72 73 74 77 80 82 85 89 93 94 95 97 99 101 102 103 104 107 109 111
63 62 60 59 58 58 58 56 54 55 55 55 55 57 59 60 60 60 61 61 60 59 57 55 55 57 60 62 64 64 62 62 62 63 64 64 63 63 64 65 67 68 68 69 70 72 76 78 79 81 85 89 91 91 93 96 97 98 99 100 101 104 106
63 62 60 59 58 57 57 56 54 53 54 53 53 55 57 58 59 59 60 60 59 56 54 53 53 54 57 60 62 62 60 60 60 61 62 63 62 62 62 63 63 63 64 66 68 71 74 77 78 77 80 84 86 87 89 91 92 93 96 97 98 99 102
64 62 60 59 58 56 56 56 54 52 52 51 51 52 55 56 57 58 59 59 57 55 53 51 50 51 53 58 60 59 58 58 59 59 61 62 62 61 60 60 60 62 63 65 65 67 70 74 76 75 75 79 83 84 85 86 87 90 93 94 94 97 100
64 63 60 58 57 56 55 55 55 53 52 51 49 50 52 54 55 56 58 58 56 55 52 49 48 48 51 54 56 56 56 56 56 57 59 61 61 60 58 58 58 60 62 61 62 64 67 70 73 73 73 75 78 80 81 81 83 87 90 90 92 95 99
64 63 61 59 57 55 54 54 55 53 52 50 49 48 50 52 52 53 55 56 55 54 51 48 46 47 49 52 53 53 53 53 52 53 56 58 58 58 58 57 56 57 59 60 60 62 64 67 69 70 71 72 74 76 77 78 79 83 85 87 90 94 97
63 63 62 59 57 55 54 53 54 53 52 50 48 47 48 50 51 50 52 54 55 53 50 46 44 46 48 49 50 50 51 50 50 51 53 54 55 55 56 56 55 55 56 58 59 60 62 64 66 67 68 70 71 73 74 74 76 78 80 82 86 91 93
63 63 62 60 57 54 53 53 53 53 52 51 49 47 47 48 48 48 48 50 53 53 49 44 42 43 45 46 47 48 48 48 48 49 50 51 52 52 53 54 54 54 54 56 57 58 60 61 63 64 65 67 69 71 71 71 73 75 77 79 83 87 89
63 62 62 60 57 54 53 53 52 52 52 51 49 47 46 46 45 44 44 46 49 52 50 44 40 40 42 43 44 46 46 46 46 47 47 48 49 50 51 52 52 52 53 54 55 56 57 58 60 62 63 65 67 68 69 69 70 73 75 77 80 84 87
62 62 61 60 58 55 53 52 52 52 52 52 50 48 46 44 43 42 42 42 45 49 49 45 40 39 40 41 42 43 44 44 45 45 45 46 47 48 49 50 50 51 51 52 53 54 55 56 57 59 62 63 65 67 68 67 68 70 72 74 77 80 84
62 61 61 60 58 55 53 52 51 51 51 51 50 48 46 45 44 42 40 39 40 43 46 45 40 38 38 39 40 41 42 43 43 44 44 44 45 46 47 48 48 49 49 50 51 52 53 54 55 57 60 62 63 65 66 65 65 67 69 71 74 77 81
61 60 60 59 57 56 55 53 51 51 52 51 50 49 47 46 45 42 39 37 37 38 40 42 40 38 36 36 37 39 40 41 42 42 42 42 43 44 45 46 47 47 48 49 49 50 51 52 53 55 58 60 61 63 63 62 62 64 66 69 72 75 78
60 59 59 58 57 55 54 53 52 51 52 51 51 49 47 47 46 42 38 35 34 34 34 36 37 37 36 35 35 37 38 39 40 40 41 41 41 42 43 44 45 46 46 47 48 48 49 50 51 53 55 57 59 60 60 60 61 62 64 66 68 72 75
58 58 57 57 56 55 54 54 52 51 51 51 51 50 49 48 48 45 40 37 35 34 34 34 33 34 35 35 34 36 37 37 38 39 39 39 40 40 41 42 43 44 44 45 46 47 47 48 49 51 53 54 56 57 58 59 60 61 62 64 66 69 72
57 56 55 55 54 53 53 53 53 51 51 51 51 51 50 50 50 49 46 43 42 40 39 37 35 34 35 35 35 35 36 37 37 37 38 38 38 38 39 39 41 42 42 43 44 44 45 46 47 49 50 52 53 54 56 57 59 59 60 62 64 67 69
55 54 53 53 53 52 52 52 53 53 52 52 52 52 51 49 49 49 48 46 45 43 42 40 38 36 35 35 35 35 36 36 36 37 37 38 37 37 37 37 38 39 40 41 41 42 43 44 45 46 47 49 50 52 54 55 56 57 58 60 62 64 65
54 53 52 51 52 52 51 51 52 52 53 52 52 52 51 49 48 48 48 46 45 44 42 40 38 37 35 35 35 35 35 36 36 36 36 37 37 36 36 36 36 37 38 38 39 40 41 42 43 44 45 46 48 50 51 53 54 55 56 58 59 61 62
53 51 50 49 49 49 49 48 48 49 50 50 50 50 50 49 47 47 47 46 44 42 42 40 39 37 35 34 34 35 35 35 35 35 35 35 36 35 35 35 35 35 36 37 37 38 39 40 41 42 43 44 46 47 49 50 51 53 54 55 57 58 59
52 51 49 48 47 46 46 46 46 47 48 49 49 49 49 48 47 47 47 47 45 42 40 39 38 37 36 35 34 34 34 34 34 35 35 34 35 34 34 34 34 34 35 35 36 36 37 38 39 41 42 43 44 45 47 48 49 50 52 53 54 56 57
48 49 49 48 47 45 44 44 44 45 46 46 47 47 47 47 46 45 45 45 45 43 40 39 37 36 35 35 34 33 33 33 33 34 34 33 33 33 33 33 33 33 33 34 34 35 36 37 38 39 41 42 43 43 45 46 47 48 50 51 52 54 55
46 45 46 47 46 45 44 43 43 43 44 44 44 45 45 46 45 44 42 42 42 42 40 39 37 35 34 34 33 32 33 33 33 33 33 33 32 32 33 32 32 32 32 32 33 34 35 36 37 38 39 40 41 42 43 44 45 47 48 49 50 52 53
49 46 45 45 46 45 44 43 43 43 43 43 43 43 43 44 44 43 42 41 40 39 38 37 36 35 33 32 32 32 32 32 32 32 32 32 32 31 32 32 31 31 31 31 32 32 34 35 36 37 38 39 40 41 42 43 44 45 46 47 49 50 51
Wind_Direction
287 286 285 285 284 283 282 282 281 280 279 278 277 276 275 274 273 272 271 270 268 267 266 265 263 262 261 260 260 259 258 258 257 257 256 255 254 254 253 251 250 248 245 245 246 247 247 247 247 247 248 249 249 248 248 248 247 246 244 243 242 241 241
288 287 286 285 284 284 283 282 281 280 279 278 277 276 275 274 273 272 271 270 269 268 266 265 264 263 262 261 260 259 259 258 258 257 257 256 255 254 253 252 250 248 246 244 244 246 246 247 247 247 246 247 247 248 248 247 246 246 245 244 242 241 240
289 288 287 286 285 285 284 283 282 281 280 279 278 277 276 275 273 272 271 270 269 268 267 266 265 264 263 262 261 260 260 259 259 259 258 257 257 255 254 253 252 249 247 244 244 245 245 246 246 246 246 246 246 246 247 247 246 245 244 243 243 242 241
291 290 289 288 287 286 285 284 283 282 281 280 279 278 277 275 274 272 271 269 268 268 267 266 265 264 264 263 263 262 262 261 260 259 259 258 257 256 255 254 253 251 249 247 245 245 245 244 245 246 246 246 246 246 246 246 246 245 244 243 242 241 241
293 291 290 289 288 287 285 284 283 282 281 280 279 278 277 276 274 272 271 269 268 267 266 266 265 264 264 264 264 263 263 262 261 260 259 258 257 257 256 255 254 253 251 248 246 246 245 244 244 244 245 245 245 245 245 245 245 245 244 243 241 240 239
295 293 292 290 289 288 286 285 284 283 282 281 280 279 277 276 274 273 271 270 269 268 267 266 265 265 265 264 264 263 263 263 262 261 260 259 258 257 256 255 255 254 252 250 248 246 246 245 244 243 244 244 244 244 245 245 244 244 244 243 242 240 239
297 295 294 292 291 290 288 287 286 285 284 282 281 279 277 276 274 273 272 271 270 269 268 267 267 267 266 265 264 264 264 263 263 262 261 260 259 257 256 255 254 253 252 250 248 246 246 245 244 243 243 243 243 243 244 244 244 244 244 243 242 241 240
299 297 296 295 293 292 290 289 288 287 285 284 282 280 278 277 275 274 273 272 271 271 270 270 269 269 268 267 267 266 265 265 264 263 262 260 259 258 256 255 253 252 251 250 248 246 245 244 244 244 243 242 242 242 242 243 243 243 243 243 243 241 240
300 299 298 297 295 293 292 291 290 289 287 285 283 282 280 278 277 276 275 274 273 273 272 272 271 271 270 269 269 268 267 266 265 264 262 260 259 256 255 254 252 252 250 249 248 246 245 243 243 244 243 242 242 241 241 241 242 242 242 242 242 241 240
302 301 300 299 297 295 294 293 292 290 288 286 285 283 282 280 279 277 276 275 275 275 274 274 273 272 272 271 271 270 269 267 265 263 262 260 259 256 254 253 252 251 250 249 248 246 245 244 243 243 243 243 242 241 240 241 241 240 240 241 242 241 241
304 303 302 301 299 297 296 295 294 292 289 287 285 284 282 281 280 279 278 277 276 276 275 275 274 274 273 273 272 270 268 266 265 263 261 260 259 258 256 255 253 252 251 249 248 246 245 244 243 243 243 243 242 242 240 240 240 240 239 240 241 241 240
306 305 304 303 301 299 298 297 295 293 290 289 287 285 283 282 280 280 279 278 277 277 277 277 277 276 275 274 272 269 267 265 263 261 260 260 260 259 259 257 255 253 251 249 247 246 245 243 242 243 243 243 242 242 241 240 240 240 239 239 239 239 239
308 307 306 305 303 301 300 299 297 294 292 291 289 287 285 283 282 281 280 279 279 278 278 278 278 278 277 275 272 269 266 264 263 262 261 261 261 260 259 258 256 255 253 251 248 246 245 244 242 242 243 243 242 242 242 241 240 240 239 239 238 238 238
310 309 308 307 305 303 302 301 299 297 295 293 291 289 287 285 284 283 281 280 280 279 279 279 279 279 277 275 273 270 268 267 266 265 264 262 260 259 258 258 257 256 255 253 251 248 246 244 243 241 241 242 242 241 241 240 240 239 239 238 238 238 238
311 310 309 308 307 305 304 303 302 299 297 296 295 292 290 288 286 285 283 282 281 281 281 281 280 279 276 275 273 272 271 270 269 268 266 263 261 259 258 257 256 255 254 253 252 250 248 245 243 242 242 242 241 240 240 240 239 239 239 238 238 238 237
312 311 311 310 309 307 305 304 303 301 299 297 296 294 292 290 289 287 285 284 283 283 282 282 280 278 276 275 274 273 272 271 270 268 267 265 263 261 258 256 255 254 253 253 251 251 250 248 244 242 243 243 242 240 240 240 239 239 239 238 238 238 238
313 312 311 311 310 309 307 305 304 302 300 298 297 295 293 291 290 288 287 286 285 285 284 282 279 278 276 275 274 273 272 271 270 269 268 266 264 262 260 258 257 255 254 251 249 248 248 248 246 243 243 244 244 242 240 240 239 239 239 238 237 237 237
313 312 312 312 311 310 308 306 305 304 302 300 299 297 295 293 291 290 288 288 287 286 284 282 280 278 275 274 273 273 272 271 271 270 269 268 266 263 261 260 259 257 254 251 250 249 248 249 248 246 243 242 243 243 241 239 239 238 238 237 236 236 236
314 313 313 313 311 310 309 307 307 306 304 303 302 300 297 295 293 292 291 290 289 288 286 284 282 279 276 274 274 273 272 270 270 269 269 268 267 266 264 261 259 258 256 254 252 251 249 248 248 247 244 242 242 243 242 240 238 238 237 236 235 235 235
315 314 314 314 313 311 310 309 308 307 306 305 304 302 300 298 296 294 293 292 290 289 288 286 284 280 277 276 275 274 272 271 269 268 267 267 267 266 265 263 260 258 257 256 253 251 250 249 248 247 246 244 242 242 242 241 239 238 237 236 235 235 235
315 314 314 314 313 312 311 310 308 308 307 307 306 304 302 300 298 296 295 293 291 289 288 287 284 281 279 277 276 275 273 272 270 268 267 267 266 265 265 263 261 259 257 256 254 252 251 250 249 247 246 245 244 241 240 239 239 238 237 236 235 235 235
316 315 314 314 314 313 312 310 309 309 308 308 307 306 303 301 299 297 296 294 292 290 289 287 284 282 280 278 277 276 274 273 271 269 268 267 266 265 264 263 261 259 257 256 254 253 251 250 249 248 246 245 244 243 240 238 238 237 236 235 234 234 234
316 315 315 314 314 314 312 311 311 310 309 309 308 306 303 301 299 299 298 297 295 293 291 289 287 285 283 281 279 277 275 274 272 270 269 267 266 265 264 263 261 259 257 256 254 253 251 250 249 248 246 245 244 243 241 238 237 236 236 234 233 233 233
316 316 315 314 314 314 313 313 312 311 310 309 307 306 304 303 302 301 300 299 297 296 294 293 291 288 286 283 281 279 277 275 273 272 270 268 267 265 264 263 261 259 257 255 254 252 251 249 248 247 246 245 243 243 241 239 236 235 235 234 233 233 233
317 316 315 315 315 315 314 314 313 311 310 309 308 308 308 307 306 304 302 300 297 295 295 294 291 288 286 284 282 279 278 276 274 273 271 269 268 266 264 263 261 260 258 255 254 252 251 249 247 246 245 244 243 242 241 239 237 235 235 234 234 233 233
317 317 316 315 315 315 315 314 313 312 311 311 310 310 310 308 306 304 302 300 298 296 295 295 293 289 287 286 284 281 279 277 276 274 272 270 268 266 265 263 261 260 258 256 254 252 250 248 247 245 245 244 244 243 241 240 238 236 235 234 233 233 233
318 317 316 315 315 315 315 314 314 314 313 312 311 311 310 309 308 305 303 300 298 296 294 294 294 292 290 288 286 284 281 279 277 275 273 271 269 266 264 263 261 259 257 256 254 252 250 248 246 245 244 244 243 243 242 240 238 236 234 233 233 233 233
319 318 317 316 316 316 316 315 315 314 313 312 312 312 313 313 312 311 309 307 305 303 300 298 297 296 294 292 290 287 284 282 279 277 275 272 269 267 264 262 260 258 256 255 253 251 249 247 246 245 244 243 243 242 241 240 238 235 234 233 232 232 232
319 319 317 316 316 316 315 315 314 314 314 315 315 316 316 317 316 316 315 315 314 312 309 306 303 300 298 295 293 290 288 285 282 279 277 274 271 268 265 262 260 258 256 253 252 250 249 247 245 244 243 242 242 241 240 240 238 236 234 233 232 231 231
320 319 318 317 317 317 317 316 316 317 318 318 318 317 316 316 315 314 314 314 314 312 310 307 304 302 300 297 295 292 289 286 284 281 279 276 273 270 266 262 260 258 255 253 251 250 248 247 245 244 243 242 241 241 240 239 238 237 234 233 232 232 231
321 320 319 318 318 318 319 319 318 318 318 318 317 315 314 314 313 312 312 312 311 310 308 305 303 301 300 298 295 293 290 288 285 282 279 277 274 271 267 264 260 257 255 253 251 250 248 247 246 245 243 242 241 241 240 239 238 237 235 234 232 231 230
322 321 320 319 319 318 318 318 318 317 316 315 314 313 313 313 312 311 311 310 310 308 307 305 303 301 299 298 295 293 291 288 286 283 280 277 274 271 267 264 261 258 255 253 252 250 249 247 246 245 243 242 241 241 240 239 238 237 236 235 233 231 230
323 322 321 320 320 319 318 318 317 316 315 315 314 313 313 312 312 311 310 310 309 308 306 304 303 302 300 298 296 294 291 289 286 283 281 278 275 272 268 264 261 258 256 254 252 251 249 248 246 245 244 242 241 240 240 239 238 238 236 235 234 232 230
325 323 322 322 321 320 320 319 317 316 315 315 314 313 312 311 311 310 309 308 308 307 306 304 302 301 299 298 296 294 291 289 286 283 281 278 275 272 269 265 261 259 256 254 253 251 249 248 246 245 244 243 242 240 239 239 238 237 236 235 234 232 230
328 325 323 322 322 321 321 320 318 317 316 315 314 313 311 310 309 308 307 307 306 306 305 304 302 300 298 297 295 293 291 289 286 283 280 278 275 272 269 265 262 259 257 254 253 252 250 248 246 245 244 243 242 241 239 239 238 237 236 235 234 232 231
329 328 326 324 323 322 322 321 320 319 318 317 315 314 312 310 309 308 307 306 305 304 304 303 302 300 299 297 296 294 291 289 286 283 280 277 274 272 269 266 263 260 257 255 253 252 251 248 247 245 244 243 242 241 240 238 237 236 235 234 233 232 231